Weather History for Muskegon, MI

Change the Weather History Date:

Saturday, December 24, 2011

  Actual Average Record
Temperature  
Mean Temperature 37 °F 28 °F  
Max Temperature 41 °F 33 °F 55 °F (1932)
Min Temperature 33 °F 23 °F -5 °F (1960)
Degree Days  
Heating Degree Days 28 37  
Month to date heating degree days 683 817  
Since 1 July heating degree days 1846 2184  
Cooling Degree Days 0 0  
Month to date cooling degree days 0 0  
Year to date cooling degree days 752 566  
Moisture  
Dew Point 27 °F    
Average Humidity 70    
Maximum Humidity 75    
Minimum Humidity 64    
Precipitation  
Precipitation T in 0.08 in 1.47 in (1979)
Month to date precipitation 1.57 2.06  
Year to date precipitation 41.13 33.00  
Snow  
Snow T in 1.00 in 9.00 in (1916)
Month to date snowfall 1.5 21.9  
Since 1 July snowfall 1.6 28.1  
Snow Depth 0.00 in    
Sea Level Pressure  
Sea Level Pressure 30.22 in    
Wind  
Wind Speed 14 mph (SW)    
Max Wind Speed 25 mph    
Max Gust Speed 32 mph    
Visibility 10 miles    
Events      
T = Trace of Precipitation, MM = Missing Value Source: NWS Daily Summary

Daily Weather History Graph

Daily Weather History Graph

Search for Another Location

Airport:

Trip Planner

Search our weather history database for the weather conditions in past years. The results will help you decide how hot, cold, wet, or windy it might be!

Date:

Astronomy

Dec. 24, 2011 Rise Set
Actual Time 8:14 AM EST 5:14 PM EST
Civil Twilight 7:42 AM EST 5:46 PM EST
Nautical Twilight 7:06 AM EST 6:22 PM EST
Astronomical Twilight 6:31 AM EST 6:57 PM EST
Moon 8:02 AM EST (12/24) 5:26 PM EST (12/24)
Length of Visible Light 10h 04m
Length of Day
8h 59m
Waning Crescent, 0% of the Moon is Illuminated
Dec 24
Waning Crescent
Dec 24
New
Jan 1
First Quarter
Jan 9
Full
Jan 16
Last Quarter

Hourly Weather History & Observations

Time (EST) Temp. Windchill Dew Point Humidity Pressure Visibility Wind Dir Wind Speed Gust Speed Precip Events Conditions
12:14 AM 33.8 °F 25.8 °F 26.6 °F 75% 30.21 in 9.0 mi West 10.4 mph 18.4 mph 0.00 in   Overcast
12:23 AM 33.8 °F 27.7 °F 26.6 °F 75% 30.20 in 10.0 mi West 6.9 mph - N/A   Overcast
12:55 AM 34.0 °F 28.0 °F 25.0 °F 70% 30.23 in 10.0 mi West 6.9 mph - 0.00 in   Overcast
1:08 AM 33.8 °F 27.0 °F 24.8 °F 70% 30.20 in 10.0 mi West 8.1 mph - N/A   Overcast
1:55 AM 34.0 °F 25.0 °F 25.0 °F 70% 30.23 in 10.0 mi West 12.7 mph - N/A   Overcast
2:09 AM 33.8 °F 25.8 °F 24.8 °F 70% 30.21 in 10.0 mi West 10.4 mph - N/A   Overcast
2:20 AM 33.8 °F 27.0 °F 24.8 °F 70% 30.22 in 10.0 mi West 8.1 mph - N/A   Overcast
2:55 AM 33.8 °F 25.8 °F 24.8 °F 70% 30.23 in 10.0 mi WSW 10.4 mph - N/A   Overcast
3:04 AM 35.6 °F 29.2 °F 24.8 °F 65% 30.24 in 10.0 mi West 8.1 mph - N/A   Overcast
3:22 AM 33.8 °F 27.0 °F 24.8 °F 70% 30.24 in 10.0 mi West 8.1 mph - N/A   Overcast
3:37 AM 35.6 °F 29.9 °F 24.8 °F 65% 30.24 in 10.0 mi WSW 6.9 mph - N/A   Overcast
3:55 AM 35.1 °F 28.6 °F 24.1 °F 64% 30.27 in 10.0 mi WSW 8.1 mph - N/A   Overcast
4:06 AM 33.8 °F 29.6 °F 24.8 °F 70% 30.24 in 10.0 mi WSW 4.6 mph - N/A   Overcast
4:32 AM 35.6 °F 29.9 °F 24.8 °F 65% 30.24 in 10.0 mi West 6.9 mph - N/A   Overcast
4:55 AM 34.0 °F 29.8 °F 23.0 °F 64% 30.27 in 10.0 mi SW 4.6 mph - N/A   Overcast
5:55 AM 34.0 °F 31.0 °F 23.0 °F 64% 30.28 in 10.0 mi SW 3.5 mph - N/A   Overcast
6:55 AM 34.0 °F 29.8 °F 24.1 °F 67% 30.30 in 10.0 mi SSW 4.6 mph - N/A   Overcast
7:55 AM 35.1 °F 27.4 °F 26.1 °F 70% 30.30 in 10.0 mi SSW 10.4 mph - N/A   Overcast
8:55 AM 36.0 °F 28.5 °F 25.0 °F 64% 30.31 in 10.0 mi SSW 10.4 mph - N/A   Overcast
9:55 AM 36.0 °F 27.5 °F 26.1 °F 67% 30.32 in 10.0 mi SSW 12.7 mph - N/A   Mostly Cloudy
10:24 AM 35.6 °F 27.1 °F 26.6 °F 70% 30.30 in 10.0 mi SSW 12.7 mph 20.7 mph N/A   Overcast
10:55 AM 37.0 °F 29.3 °F 28.0 °F 70% 30.33 in 10.0 mi SSW 11.5 mph 21.9 mph N/A   Overcast
11:55 AM 36.0 °F 26.0 °F 27.0 °F 70% 30.30 in 10.0 mi South 17.3 mph 24.2 mph N/A   Overcast
12:51 PM 35.6 °F 26.2 °F 26.6 °F 70% 30.23 in 10.0 mi South 15.0 mph - N/A   Scattered Clouds
12:55 PM 36.0 °F 26.0 °F 27.0 °F 70% 30.25 in 10.0 mi South 17.3 mph 26.5 mph N/A   Mostly Cloudy
1:55 PM 35.6 °F 25.9 °F 28.4 °F 75% 30.21 in 10.0 mi South 16.1 mph 25.3 mph N/A   Overcast
2:55 PM 37.0 °F 26.7 °F 28.0 °F 70% 30.22 in 10.0 mi SSW 19.6 mph 26.5 mph N/A   Overcast
3:55 PM 37.4 °F 28.5 °F 28.4 °F 70% 30.20 in 10.0 mi SSW 15.0 mph 24.2 mph N/A   Overcast
4:55 PM 37.0 °F 26.7 °F 28.9 °F 73% 30.19 in 10.0 mi SSW 19.6 mph 25.3 mph N/A   Mostly Cloudy
5:47 PM 37.4 °F 27.8 °F 28.4 °F 70% 30.14 in 10.0 mi South 17.3 mph 24.2 mph N/A   Scattered Clouds
5:55 PM 37.0 °F 27.7 °F 28.9 °F 73% 30.17 in 10.0 mi SSW 16.1 mph - N/A   Scattered Clouds
6:55 PM 37.9 °F 28.2 °F 28.0 °F 68% 30.15 in 10.0 mi SSW 18.4 mph - N/A   Partly Cloudy
7:55 PM 39.0 °F 29.6 °F 30.0 °F 70% 30.15 in 10.0 mi SSW 18.4 mph 31.1 mph N/A   Scattered Clouds
8:39 PM 39.2 °F 30.2 °F 30.2 °F 70% 30.11 in 10.0 mi SW 17.3 mph - N/A   Mostly Cloudy
8:55 PM 39.9 °F 30.5 °F 30.0 °F 68% 30.13 in 10.0 mi SW 19.6 mph 26.5 mph N/A   Mostly Cloudy
9:40 PM 39.2 °F 30.5 °F 30.2 °F 70% 30.10 in 10.0 mi WSW 16.1 mph 26.5 mph N/A   Scattered Clouds
9:55 PM 39.9 °F 30.0 °F 28.9 °F 65% 30.12 in 10.0 mi WSW 21.9 mph 28.8 mph N/A   Scattered Clouds
10:55 PM 39.9 °F 31.1 °F 30.9 °F 70% 30.10 in 10.0 mi WSW 17.3 mph 28.8 mph N/A   Partly Cloudy
11:55 PM 39.9 °F 30.5 °F 30.9 °F 70% 30.09 in 10.0 mi WSW 19.6 mph 24.2 mph N/A   Partly Cloudy